Weather History for Panama City Tyndall AFB, FL

Change the Weather History Date:

Friday, November 16, 2012

  Actual Average Record
Temperature  
Mean Temperature 48 °F -  
Max Temperature 53 °F 70 °F 80 °F (2011)
Min Temperature 44 °F 52 °F 37 °F (2007)
Degree Days  
Heating Degree Days 16    
Moisture  
Dew Point 48 °F    
Average Humidity 95    
Maximum Humidity 100    
Minimum Humidity 86    
Precipitation  
Precipitation 0.00 in - - ()
Sea Level Pressure  
Sea Level Pressure 30.24 in    
Wind  
Wind Speed 6 mph (NE)    
Max Wind Speed 10 mph    
Max Gust Speed -    
Visibility 9 miles    
Events      
Averages and records for this station are not official NWS values.
T = Trace of Precipitation, MM = Missing Value Source: NWS Daily Summary

Daily Weather History Graph

Daily Weather History Graph

Search for Another Location

Airport:

Trip Planner

Search our weather history database for the weather conditions in past years. The results will help you decide how hot, cold, wet, or windy it might be!

Date:

Astronomy

Nov. 16, 2012 Rise Set
Actual Time 6:08 AM CST 4:45 PM CST
Civil Twilight 5:43 AM CST 5:10 PM CST
Nautical Twilight 5:14 AM CST 5:39 PM CST
Astronomical Twilight 4:45 AM CST 6:08 PM CST
Moon 8:59 AM CST (11/16) 7:46 PM CST (11/16)
Length of Visible Light 11h 27m
Length of Day
10h 36m
Waxing Crescent, 12% of the Moon is Illuminated
Nov 16
Waxing Crescent
Nov 20
First Quarter
Nov 28
Full
Dec 6
Last Quarter
Dec 13
New

Hourly Weather History & Observations

Time (CST) Temp. Windchill Dew Point Humidity Pressure Visibility Wind Dir Wind Speed Gust Speed Precip Events Conditions
12:10 AM 50.0 °F - 48.2 °F 94% 30.23 in 10.0 mi NE 6.9 mph - N/A   Overcast
12:41 AM 50.0 °F - 48.2 °F 94% 30.24 in 10.0 mi NE 6.9 mph - N/A   Overcast
12:49 AM 50.0 °F - 48.2 °F 94% 30.23 in 10.0 mi NE 8.1 mph - N/A   Overcast
12:53 AM 50.0 °F - 48.2 °F 94% 30.23 in 10.0 mi NE 6.9 mph - N/A   Overcast
12:56 AM 50.0 °F - 48.2 °F 94% 30.23 in 10.0 mi NE 8.1 mph - N/A   Overcast
1:55 AM 49.8 °F - 47.8 °F 93% 30.22 in 10.0 mi NE 6.9 mph - N/A   Overcast
2:55 AM 49.6 °F - 47.8 °F 94% 30.22 in 10.0 mi ENE 5.8 mph - N/A   Overcast
3:55 AM 49.5 °F - 48.0 °F 95% 30.22 in 10.0 mi ENE 5.8 mph - N/A   Overcast
4:12 AM 50.0 °F - 48.2 °F 94% 30.21 in 10.0 mi NE 6.9 mph - N/A   Overcast
4:25 AM 50.0 °F - 48.2 °F 94% 30.21 in 10.0 mi NE 5.8 mph - N/A   Overcast
4:33 AM 50.0 °F - 48.2 °F 94% 30.22 in 10.0 mi ENE 4.6 mph - N/A   Overcast
4:55 AM 49.1 °F - 48.0 °F 96% 30.21 in 10.0 mi Variable 5.8 mph - N/A   Overcast
5:55 AM 48.7 °F - 48.0 °F 97% 30.23 in 10.0 mi NE 4.6 mph - N/A   Overcast
6:51 AM 48.2 °F - 48.2 °F 100% 30.25 in 10.0 mi ENE 5.8 mph - N/A   Overcast
6:55 AM 49.1 °F - 47.7 °F 95% 30.25 in 10.0 mi ENE 8.1 mph - N/A   Overcast
7:01 AM 50.0 °F - 48.2 °F 94% 30.25 in 10.0 mi NE 6.9 mph - N/A   Overcast
7:15 AM 50.0 °F - 48.2 °F 94% 30.26 in 10.0 mi Variable 5.8 mph - N/A   Overcast
7:22 AM 50.0 °F - 48.2 °F 94% 30.26 in 10.0 mi NE 10.4 mph - N/A   Overcast
7:55 AM 49.5 °F - 48.0 °F 95% 30.26 in 5.0 mi NE 6.9 mph - N/A   Overcast
8:11 AM 50.0 °F - 48.2 °F 94% 30.25 in 4.0 mi Variable 6.9 mph - N/A   Overcast
8:36 AM 50.0 °F - 48.2 °F 94% 30.27 in 4.0 mi ENE 8.1 mph - N/A   Overcast
8:51 AM 50.0 °F - 48.2 °F 94% 30.27 in 6.0 mi ENE 6.9 mph - N/A   Light Drizzle
8:55 AM 49.5 °F - 49.1 °F 99% 30.27 in 6.0 mi NE 8.1 mph - 0.00 in   Light Drizzle
9:01 AM 50.0 °F - 50.0 °F 100% 30.26 in 6.0 mi NE 8.1 mph - N/A   Overcast
9:24 AM 50.0 °F - 50.0 °F 100% 30.26 in 10.0 mi NE 5.8 mph - N/A   Overcast
9:38 AM 51.8 °F - 48.2 °F 88% 30.26 in 10.0 mi NE 8.1 mph - N/A   Overcast
9:55 AM 51.1 °F - 48.7 °F 92% 30.26 in 10.0 mi NE 5.8 mph - 0.00 in   Overcast
10:55 AM 50.7 °F - 48.0 °F 90% 30.26 in 10.0 mi NE 8.1 mph - N/A   Overcast
11:16 AM 51.8 °F - 48.2 °F 88% 30.25 in 10.0 mi ENE 9.2 mph - N/A   Overcast
11:55 AM 52.0 °F - 48.4 °F 88% 30.25 in 10.0 mi Variable 5.8 mph - N/A   Overcast
12:13 PM 51.8 °F - 50.0 °F 94% 30.24 in 10.0 mi Variable 5.8 mph - N/A   Overcast
12:41 PM 51.8 °F - 48.2 °F 88% 30.24 in 10.0 mi ENE 5.8 mph - N/A   Overcast
12:55 PM 52.9 °F - 49.1 °F 87% 30.23 in 10.0 mi NE 5.8 mph - N/A   Overcast
1:55 PM 53.6 °F - 49.6 °F 86% 30.22 in 10.0 mi NE 9.2 mph - N/A   Overcast
2:55 PM 53.8 °F - 50.0 °F 87% 30.21 in 10.0 mi NE 8.1 mph - N/A   Overcast
3:55 PM 53.4 °F - 50.4 °F 89% 30.21 in 10.0 mi NE 6.9 mph - N/A   Overcast
4:15 PM 53.6 °F - 50.0 °F 88% 30.21 in 10.0 mi NE 8.1 mph - N/A   Overcast
4:41 PM 53.6 °F - 50.0 °F 88% 30.21 in 10.0 mi ENE 6.9 mph - N/A   Scattered Clouds
4:55 PM 52.2 °F - 49.6 °F 91% 30.22 in 10.0 mi NE 4.6 mph - N/A   Partly Cloudy
5:55 PM 50.7 °F - 49.6 °F 96% 30.23 in 10.0 mi Calm Calm - N/A   Clear
6:55 PM 50.2 °F - 49.8 °F 99% 30.25 in 10.0 mi ENE 3.5 mph - N/A   Clear
7:21 PM 50.0 °F - 50.0 °F 100% 30.25 in 10.0 mi ENE 3.5 mph - N/A   Light Drizzle
7:32 PM 50.0 °F - 50.0 °F 100% 30.25 in 10.0 mi Variable 4.6 mph - N/A   Clear
7:41 PM 50.0 °F - 50.0 °F 100% 30.25 in 10.0 mi NE 3.5 mph - N/A   Light Drizzle
7:53 PM 50.0 °F - 50.0 °F 100% 30.26 in 10.0 mi ENE 3.5 mph - N/A   Clear
8:55 PM 48.4 °F - 48.0 °F 99% 30.28 in 10.0 mi East 3.5 mph - N/A   Clear
9:55 PM 47.3 °F - 47.1 °F 99% 30.28 in 10.0 mi Calm Calm - N/A   Clear
10:55 PM 46.2 °F - 46.0 °F 99% 30.27 in 10.0 mi Calm Calm - N/A   Clear
11:19 PM 44.6 °F - 42.8 °F 93% 30.27 in 8.0 mi Calm Calm - N/A   Clear
11:28 PM 44.6 °F - 44.6 °F 100% 30.27 in 1.8 mi Calm Calm - N/A   Clear
11:29 PM 44.6 °F - 44.6 °F 100% 30.27 in 1.8 mi Calm Calm - N/A   Clear
11:32 PM 44.6 °F - 44.6 °F 100% 30.26 in 1.8 mi Calm Calm - N/A   Clear
11:33 PM 44.6 °F - 44.6 °F 100% 30.26 in 2.0 mi Calm Calm - N/A   Clear
11:38 PM 44.6 °F 43.1 °F 44.6 °F 100% 30.26 in 5.0 mi NNE 3.5 mph - N/A   Clear
11:50 PM 46.4 °F 45.2 °F 44.6 °F 93% 30.26 in 9.0 mi NNE 3.5 mph - N/A   Clear
11:55 PM 45.5 °F 44.2 °F 45.3 °F 99% 30.27 in 9.0 mi NNE 3.5 mph - N/A   Clear